SCP
0 0 0 0 0 0 0 0 0 0 0 0 0 -0 -0 -0 -0 0 0 0 0 0 0 0 0 0 -0 -0 -0 0 0 0 0 0 0 0 0 0 0 0 0 0 0
0 0 0 0 0 0 0 0 0 0 -0 -0 0 0 0 0 0 0 0 0 0 0 0 0 0 0 -0 0 0 0 0 0 0 0 0 0 0 0 -0 0 0 0 0
0 0 0 0 0 -0 0 -0 -0 -0 -0 0 0 0 0 0 0 0 0 0 0 0 0 0 0 0 0 0 0 0 0 0 0 0 0 0 0 0 0 0 0 0 0
0 0 0 0 0 0 -0 0 0 0 0 0 0 0 0 0 0 0 0 0 0 0 0 0 0 0 0 0 0 0 0 0 0 0 0 0 0 0 0 0 0 0 0
0 0 0 0 0 0 0 0 0 0 -0 0 0 0 0 0 0 0 0 0 0 0 0 0 0 0 0 0 0 0 0 0 0 0 0 0 0 0 0 0 0 0 0
0 0 0 0 0 0 0 0 0 0 0 0 0 0 0 0 0 0 0 0 0 0 0 0 0 0 0 0 0 0 0 0 0 0 0 0 0 0 0 0 0 0 0
0 0 0 0 0 0 0 0 0 0 0 0 0 0 0 0 0 0 0 0 0 0 0 0 0 0 0 0 0 0 0 0 0 0 0 0 0 0 0 0 0 0 0
0 0 0 0 0 0 0 0 0 0 0 0 0 0 0 0 0 0 0 0 0 0 0 0 0 0 0 0 0 0 0 0 0 0 0 0 0 0 0 0 0 0 0
0 0 0 0 0 0 0 0 0 0 0 0 0 0 0 0 0 0 0 0 0 0 0 0 0 0 0 0 0 0 0 0 0 0 0 0 0 0 0 0 0 0 0
0 0 0 0 0 0 0 0 0 0 0 0 0 0 0 0 0 0 0 0 0 0 0 0 0 0 0 0 0 0 0 0 0 0 0 0 0 0 0 0 0 0 0
0 0 0 0 0 0 0 0 0 0 0 0 0 0 0 0 0 0 0 0 0 0 0 0 0 0 0 0 0 0 0 0 0 0 0 0 0 0 0 0 0 0 0
0 0 0 0 0 0 0 0 0 0 0 0 0 0 0 0 0 0 0 0 0 0 0 0 0 0 0 0 0 0 0 0 0 0 0 0 0 0 0 0 0 0 0
0 0 0 0 0 0 0 0 0 0 0 0 0 0 0 0 0 0 0 0 0 0 0 0 0 0 0 0 0 0 0 0 0 0 0 0 0 0 0 0 0 0 0
0 0 0 0 0 0 0 0 0 0 0 0 0 0 0 0 0 0 0 0 0 0 0 0 0 0 0 0 0 0 0 0 0 0 0 0 0 0 0 0 0 0 0
0 0 0 0 0 0 0 0 0 0 0 0 0 0 0 0 0 0 0 0 0 0 0 0 0 0 0 0 0 0 0 0 0 0 0 0 0 0 0 0 0 0 0
0 0 0 0 0 0 0 0 0 0 0 0 0 0 0 0 0 0 0 0 0 0 0 0 0 0 0 0 0 0 0 0 0 0 0 0 0 0 0 0 0 0 0
0 0 0 0 0 0 0 0 0 0 0 0 0 0 0 0 0 0 0 0 0 0 0 0 0 0 0 0 0 0 0 0 0 0 0 0 0 0 0 0 0 0 0
0 0 0 0 0 0 0 0 0 0 0 0 0 0 0 0 0 0 0 0 0 0 0 0 0 0 0 0 0 0 0 0 0 0 0 0 0 0 0 0 0 0 0
0 0 0 0 0 0 0 0 0 0 0 0 0 0 0 0 0 0 0 0 0 0 0 0 0 0 0 0 0 0 0 0 0 0 0 0 0 0 0 0 0 0 0
0 0 0 0 0 0 0 0 0 0 0 0 0 0 0 0 0 0 0 0 0 0 0 0 0 0 0 0 0 0 0 0 0 0 0 0 0 0 0 0 0 0 0
0 0 0 0 0 0 0 0 0 0 0 0 0 0 0 0 0 0 0 0 0 0 0 0 0 0 0 0 0 0 0 0 0 0 0 0 0 0 0 0 -0 -0 0
0 0 0 0 0 0 0 0 0 0 0 0 0 0 0 0 0 0 0 0 0 0 0 0 0 0 0 0 0 0 0 0 0 0 0 0 0 0 0 0 0 0 -0
0 0 0 0 0 0 0 0 0 0 0 0 0 0 0 0 0 0 0 0 0 0 0 0 0 0 0 0 0 0 0 0 0 0 0 0 0 0 0 0 0 0 0
0 0 0 0 0 0 0 0 0 0 0 0 0 0 0 0 0 0 0 0 0 0 0 0 0 0 0 0 0 0 0 0 0 0 0 0 0 0 0 0 0 0 0
0 0 0 0 0 0 0 0 0 0 0 0 0 0 0 0 0 0 0 0 0 0 0 0 0 0 0 0 0 0 0 0 0 0 0 0 0 0 0 0 0 0 0
0 0 0 0 0 0 0 0 0 0 0 0 0 0 0 0 0 0 0 0 0 0 0 0 0 0 0 0 0 0 0 0 0 0 0 0 0 0 0 0 0 0 0
Wind_Speed_500mb
20 18 18 19 20 23 22 22 20 19 19 21 21 22 17 11 10 10 7 5 8 10 12 13 13 13 13 12 12 12 11 12 14 16 17 22 22 16 9 8 8 9 9
21 18 19 20 20 22 22 21 24 25 21 20 14 8 9 8 7 3 1 3 8 11 13 14 14 14 13 12 10 7 7 7 7 9 12 18 20 16 11 5 3 3 3
22 17 17 19 21 24 27 26 22 13 7 2 8 13 8 6 5 3 2 5 8 9 11 13 15 16 15 14 13 10 8 5 3 3 4 6 7 6 5 5 5 3 5
20 18 15 18 25 26 26 18 11 4 11 11 9 7 2 2 3 4 7 10 14 16 18 18 18 18 18 17 15 12 9 8 7 7 6 6 8 14 10 6 8 6 4
24 22 19 24 27 23 22 15 4 5 19 15 8 8 9 8 8 9 10 12 16 17 17 18 18 19 19 19 17 16 14 13 12 12 13 14 17 19 19 18 15 10 11
23 25 23 27 21 17 14 9 6 5 12 11 10 9 14 12 8 9 11 13 14 16 17 17 19 18 18 16 14 12 12 12 14 16 17 19 21 24 25 22 20 19 17
35 22 29 27 20 18 13 11 5 3 5 11 10 10 15 11 9 9 11 13 15 16 18 18 18 19 19 18 17 16 14 13 13 13 15 18 21 24 24 23 23 22 23
23 24 23 18 15 9 12 12 9 7 2 7 10 10 11 10 9 10 12 14 15 16 17 19 19 20 21 21 21 19 17 16 15 15 15 16 16 20 21 21 20 21 22
28 33 23 15 13 13 17 13 9 10 6 7 6 5 7 8 9 11 12 14 16 18 19 21 21 21 20 20 20 20 20 20 20 19 19 18 18 19 22 22 22 22 22
26 23 19 14 13 9 12 12 6 7 6 7 4 4 5 8 8 10 12 15 17 18 19 21 22 24 24 23 22 22 21 22 21 21 20 20 21 21 22 22 22 21 23
18 12 8 5 6 8 7 7 4 8 6 6 2 5 7 8 10 12 13 15 18 20 22 24 25 25 26 25 24 22 21 20 21 20 21 19 18 20 22 23 21 20 21
25 21 19 16 15 11 10 8 7 8 7 9 8 5 8 10 10 13 15 18 20 24 25 25 25 25 25 25 24 23 21 20 21 19 20 18 19 19 20 22 23 22 24
24 25 26 24 22 23 21 15 13 14 12 10 8 7 9 12 12 17 19 21 23 24 25 25 24 23 22 22 21 22 21 20 19 20 20 19 19 21 22 23 21 19 23
16 15 17 17 18 20 23 20 17 15 13 12 11 11 9 11 14 18 21 22 23 23 22 22 22 22 22 22 21 21 20 20 20 20 21 20 19 18 17 14 15 22 25
15 13 15 15 20 21 20 19 19 17 16 14 13 11 12 13 18 20 21 22 22 22 23 22 21 20 20 21 20 20 20 20 21 20 20 20 20 18 19 22 24 26 29
18 16 17 18 20 20 21 22 22 21 19 17 15 13 12 15 18 20 20 20 22 23 23 22 19 19 18 19 19 21 21 20 18 15 13 12 14 15 17 22 26 25 28
22 22 21 21 21 23 24 25 24 23 21 19 18 16 16 17 19 21 21 22 24 26 26 24 20 19 19 20 21 21 21 18 12 8 8 9 14 19 19 21 25 30 34
29 27 26 26 26 24 24 26 27 25 23 22 20 18 17 17 20 21 21 23 25 27 26 24 18 17 19 19 19 18 18 13 6 9 15 12 14 16 20 27 34 37 41
31 34 32 31 30 29 26 26 27 28 26 25 23 21 19 19 20 20 22 24 26 28 26 21 19 18 16 16 18 16 13 7 2 14 13 17 14 21 24 33 40 44 45
28 29 36 40 38 36 32 28 28 30 29 27 25 23 21 21 20 21 22 25 27 27 26 23 19 19 20 18 16 16 10 6 6 13 12 14 11 27 28 42 45 46 48
35 37 35 39 42 40 35 29 29 28 27 26 26 24 22 22 21 22 24 27 28 28 27 24 21 19 19 19 13 15 9 9 10 14 10 20 13 33 32 47 50 51 55
32 29 34 36 38 36 33 28 26 25 24 26 26 25 24 23 23 23 25 26 27 27 26 26 24 22 21 20 19 17 6 11 12 32 10 24 15 39 35 45 49 53 52
24 21 21 28 32 34 33 28 24 23 24 24 23 22 23 24 24 24 25 26 28 28 27 26 25 24 23 22 19 11 8 7 31 18 29 23 27 43 47 49 49 53 51
20 17 16 23 30 33 33 29 26 25 25 26 24 24 25 26 26 27 27 28 29 31 31 30 28 27 27 26 26 22 21 26 18 25 30 32 54 48 53 54 54 53 50
18 15 15 20 29 34 34 31 28 27 27 28 28 27 27 28 29 30 32 34 36 38 38 36 34 34 34 33 32 33 36 36 38 41 57 63 70 67 61 56 57 57 54
20 17 15 19 26 31 33 32 30 29 28 27 27 27 26 27 29 31 33 35 36 37 37 37 39 40 40 40 40 40 41 42 48 49 59 68 76 82 72 63 57 57 55
Wind_Direction_500mb
176 161 155 152 160 161 162 153 145 138 130 131 125 123 130 149 147 137 117 41 17 9 9 10 10 12 14 19 21 25 37 42 47 59 71 65 57 58 72 84 98 117 115
158 156 158 152 157 160 160 155 142 136 132 128 137 145 160 175 171 158 91 14 356 349 358 358 1 1 360 360 6 16 22 35 42 50 75 80 64 47 56 86 155 143 148
157 160 160 158 158 157 151 146 137 130 126 103 229 175 208 217 194 197 295 342 338 339 349 349 347 348 347 348 343 342 341 344 350 358 61 110 104 75 34 38 59 231 228
149 152 163 161 155 155 153 151 137 58 335 312 307 291 327 321 319 318 334 342 341 347 349 347 348 349 347 346 343 334 323 308 296 284 281 277 252 265 297 319 312 341 301
153 154 160 154 157 160 162 158 176 57 357 329 323 2 357 334 324 332 346 344 342 344 345 348 352 352 352 350 349 340 330 317 296 279 275 275 275 283 291 281 289 285 290
160 162 163 161 173 178 194 183 185 48 310 313 326 331 330 326 324 326 330 336 338 340 344 346 347 348 348 347 348 345 336 324 310 299 289 282 282 286 291 291 285 279 271
156 172 163 187 206 210 206 203 190 215 300 307 295 294 308 304 307 320 331 332 336 341 344 344 344 345 346 344 343 339 335 328 318 307 298 292 291 293 296 297 293 283 277
192 181 182 179 188 206 213 224 227 232 204 296 284 291 289 292 306 323 324 326 328 333 338 339 343 342 338 337 335 330 326 322 317 310 303 298 298 298 302 308 308 302 295
174 186 188 190 197 230 219 226 220 242 259 241 262 288 286 294 305 310 317 323 325 330 335 336 336 335 333 330 325 322 320 318 316 312 309 307 304 301 303 308 307 303 299
198 201 210 180 203 236 246 254 215 201 204 207 181 250 300 309 312 318 320 325 328 333 333 334 333 334 331 330 327 324 319 316 316 315 312 314 312 308 308 308 309 308 303
213 221 234 244 266 264 254 257 259 221 209 255 269 279 299 302 308 322 323 326 328 330 331 331 331 329 327 325 324 322 320 320 317 318 316 320 317 316 315 315 315 311 303
231 247 259 260 267 264 253 256 235 223 237 264 264 279 295 305 318 318 320 325 327 328 329 327 326 323 322 322 321 322 323 324 321 319 316 318 316 316 315 315 318 318 313
231 246 256 261 265 259 265 253 248 248 249 256 267 279 289 303 325 321 326 327 327 324 324 324 324 322 321 319 320 321 323 322 323 320 319 318 319 317 318 319 323 327 323
228 237 250 242 254 243 239 241 243 251 252 256 265 274 291 307 316 321 324 323 323 324 325 327 324 321 321 319 320 321 321 321 320 317 317 319 320 317 319 323 311 317 322
239 254 256 247 241 244 245 247 247 248 251 255 261 274 292 312 316 317 319 322 325 327 328 325 321 318 318 317 318 319 320 320 318 316 317 318 320 325 323 326 331 329 326
248 254 252 250 249 248 246 245 245 245 246 249 256 268 285 298 309 315 320 324 325 324 323 321 315 313 312 315 320 321 321 320 319 321 325 328 332 334 333 326 322 323 324
250 249 247 246 248 249 249 247 247 247 249 252 257 268 282 299 312 317 321 323 324 324 325 324 323 321 321 324 323 322 323 323 326 345 2 2 335 328 339 339 334 330 325
256 252 246 246 247 247 249 249 250 250 251 254 258 267 283 296 305 310 315 318 322 322 323 320 318 317 321 321 321 321 323 322 343 32 347 360 8 356 1 347 343 338 332
257 250 246 245 246 250 253 257 258 256 255 255 260 265 276 287 296 302 309 316 320 322 319 314 311 315 318 323 324 324 313 302 216 19 32 9 29 9 360 351 346 340 336
270 265 249 243 243 246 249 257 261 255 253 255 259 265 273 283 291 297 305 312 317 318 316 312 307 312 317 324 327 324 295 258 225 9 358 1 8 1 350 348 344 341 337
277 267 258 245 242 241 246 258 265 260 257 256 257 263 271 277 283 293 302 311 318 321 317 310 301 303 311 316 321 328 289 275 219 328 325 344 327 348 340 342 340 336 334
288 276 258 246 239 234 238 252 256 257 256 254 257 260 263 267 277 288 298 307 314 318 318 312 305 304 308 314 327 334 301 287 228 322 274 326 307 333 329 333 333 332 331
299 289 263 242 230 226 234 245 253 257 256 253 254 256 257 261 270 280 291 302 311 317 317 311 305 299 299 301 309 320 318 290 304 296 298 298 306 319 322 324 326 329 328
304 299 266 239 227 226 232 241 251 260 255 250 250 253 259 265 272 281 289 299 307 312 316 314 306 298 293 292 293 290 286 291 302 300 301 291 302 306 312 314 316 323 324
302 295 270 242 229 226 228 237 250 259 259 257 258 261 267 272 278 282 288 296 301 303 304 304 304 301 295 291 287 289 290 293 293 289 296 301 300 303 306 308 310 314 318
292 288 268 245 233 229 233 241 250 256 258 260 261 261 264 267 274 281 287 292 296 298 299 298 296 294 293 290 288 286 286 287 290 292 292 299 301 303 302 304 306 307 310
Wind_Speed_850mb
20 18 18 19 20 23 22 22 20 19 19 21 21 22 17 11 10 10 7 5 8 10 12 13 13 13 13 12 12 12 11 12 14 16 17 22 22 16 9 8 8 9 9
21 18 19 20 20 22 22 21 24 25 21 20 14 8 9 8 7 3 1 3 8 11 13 14 14 14 13 12 10 7 7 7 7 9 12 18 20 16 11 5 3 3 3
22 17 17 19 21 24 27 26 22 13 7 2 8 13 8 6 5 3 2 5 8 9 11 13 15 16 15 14 13 10 8 5 3 3 4 6 7 6 5 5 5 3 5
20 18 15 18 25 26 26 18 11 4 11 11 9 7 2 2 3 4 7 10 14 16 18 18 18 18 18 17 15 12 9 8 7 7 6 6 8 14 10 6 8 6 4
24 22 19 24 27 23 22 15 4 5 19 15 8 8 9 8 8 9 10 12 16 17 17 18 18 19 19 19 17 16 14 13 12 12 13 14 17 19 19 18 15 10 11
23 25 23 27 21 17 14 9 6 5 12 11 10 9 14 12 8 9 11 13 14 16 17 17 19 18 18 16 14 12 12 12 14 16 17 19 21 24 25 22 20 19 17
35 22 29 27 20 18 13 11 5 3 5 11 10 10 15 11 9 9 11 13 15 16 18 18 18 19 19 18 17 16 14 13 13 13 15 18 21 24 24 23 23 22 23
23 24 23 18 15 9 12 12 9 7 2 7 10 10 11 10 9 10 12 14 15 16 17 19 19 20 21 21 21 19 17 16 15 15 15 16 16 20 21 21 20 21 22
28 33 23 15 13 13 17 13 9 10 6 7 6 5 7 8 9 11 12 14 16 18 19 21 21 21 20 20 20 20 20 20 20 19 19 18 18 19 22 22 22 22 22
26 23 19 14 13 9 12 12 6 7 6 7 4 4 5 8 8 10 12 15 17 18 19 21 22 24 24 23 22 22 21 22 21 21 20 20 21 21 22 22 22 21 23
18 12 8 5 6 8 7 7 4 8 6 6 2 5 7 8 10 12 13 15 18 20 22 24 25 25 26 25 24 22 21 20 21 20 21 19 18 20 22 23 21 20 21
25 21 19 16 15 11 10 8 7 8 7 9 8 5 8 10 10 13 15 18 20 24 25 25 25 25 25 25 24 23 21 20 21 19 20 18 19 19 20 22 23 22 24
24 25 26 24 22 23 21 15 13 14 12 10 8 7 9 12 12 17 19 21 23 24 25 25 24 23 22 22 21 22 21 20 19 20 20 19 19 21 22 23 21 19 23
16 15 17 17 18 20 23 20 17 15 13 12 11 11 9 11 14 18 21 22 23 23 22 22 22 22 22 22 21 21 20 20 20 20 21 20 19 18 17 14 15 22 25
15 13 15 15 20 21 20 19 19 17 16 14 13 11 12 13 18 20 21 22 22 22 23 22 21 20 20 21 20 20 20 20 21 20 20 20 20 18 19 22 24 26 29
18 16 17 18 20 20 21 22 22 21 19 17 15 13 12 15 18 20 20 20 22 23 23 22 19 19 18 19 19 21 21 20 18 15 13 12 14 15 17 22 26 25 28
22 22 21 21 21 23 24 25 24 23 21 19 18 16 16 17 19 21 21 22 24 26 26 24 20 19 19 20 21 21 21 18 12 8 8 9 14 19 19 21 25 30 34
29 27 26 26 26 24 24 26 27 25 23 22 20 18 17 17 20 21 21 23 25 27 26 24 18 17 19 19 19 18 18 13 6 9 15 12 14 16 20 27 34 37 41
31 34 32 31 30 29 26 26 27 28 26 25 23 21 19 19 20 20 22 24 26 28 26 21 19 18 16 16 18 16 13 7 2 14 13 17 14 21 24 33 40 44 45
28 29 36 40 38 36 32 28 28 30 29 27 25 23 21 21 20 21 22 25 27 27 26 23 19 19 20 18 16 16 10 6 6 13 12 14 11 27 28 42 45 46 48
35 37 35 39 42 40 35 29 29 28 27 26 26 24 22 22 21 22 24 27 28 28 27 24 21 19 19 19 13 15 9 9 10 14 10 20 13 33 32 47 50 51 55
32 29 34 36 38 36 33 28 26 25 24 26 26 25 24 23 23 23 25 26 27 27 26 26 24 22 21 20 19 17 6 11 12 32 10 24 15 39 35 45 49 53 52
24 21 21 28 32 34 33 28 24 23 24 24 23 22 23 24 24 24 25 26 28 28 27 26 25 24 23 22 19 11 8 7 31 18 29 23 27 43 47 49 49 53 51
20 17 16 23 30 33 33 29 26 25 25 26 24 24 25 26 26 27 27 28 29 31 31 30 28 27 27 26 26 22 21 26 18 25 30 32 54 48 53 54 54 53 50
18 15 15 20 29 34 34 31 28 27 27 28 28 27 27 28 29 30 32 34 36 38 38 36 34 34 34 33 32 33 36 36 38 41 57 63 70 67 61 56 57 57 54
20 17 15 19 26 31 33 32 30 29 28 27 27 27 26 27 29 31 33 35 36 37 37 37 39 40 40 40 40 40 41 42 48 49 59 68 76 82 72 63 57 57 55
Wind_Direction_850mb
176 161 155 152 160 161 162 153 145 138 130 131 125 123 130 149 147 137 117 41 17 9 9 10 10 12 14 19 21 25 37 42 47 59 71 65 57 58 72 84 98 117 115
158 156 158 152 157 160 160 155 142 136 132 128 137 145 160 175 171 158 91 14 356 349 358 358 1 1 360 360 6 16 22 35 42 50 75 80 64 47 56 86 155 143 148
157 160 160 158 158 157 151 146 137 130 126 103 229 175 208 217 194 197 295 342 338 339 349 349 347 348 347 348 343 342 341 344 350 358 61 110 104 75 34 38 59 231 228
149 152 163 161 155 155 153 151 137 58 335 312 307 291 327 321 319 318 334 342 341 347 349 347 348 349 347 346 343 334 323 308 296 284 281 277 252 265 297 319 312 341 301
153 154 160 154 157 160 162 158 176 57 357 329 323 2 357 334 324 332 346 344 342 344 345 348 352 352 352 350 349 340 330 317 296 279 275 275 275 283 291 281 289 285 290
160 162 163 161 173 178 194 183 185 48 310 313 326 331 330 326 324 326 330 336 338 340 344 346 347 348 348 347 348 345 336 324 310 299 289 282 282 286 291 291 285 279 271
156 172 163 187 206 210 206 203 190 215 300 307 295 294 308 304 307 320 331 332 336 341 344 344 344 345 346 344 343 339 335 328 318 307 298 292 291 293 296 297 293 283 277
192 181 182 179 188 206 213 224 227 232 204 296 284 291 289 292 306 323 324 326 328 333 338 339 343 342 338 337 335 330 326 322 317 310 303 298 298 298 302 308 308 302 295
174 186 188 190 197 230 219 226 220 242 259 241 262 288 286 294 305 310 317 323 325 330 335 336 336 335 333 330 325 322 320 318 316 312 309 307 304 301 303 308 307 303 299
198 201 210 180 203 236 246 254 215 201 204 207 181 250 300 309 312 318 320 325 328 333 333 334 333 334 331 330 327 324 319 316 316 315 312 314 312 308 308 308 309 308 303
213 221 234 244 266 264 254 257 259 221 209 255 269 279 299 302 308 322 323 326 328 330 331 331 331 329 327 325 324 322 320 320 317 318 316 320 317 316 315 315 315 311 303
231 247 259 260 267 264 253 256 235 223 237 264 264 279 295 305 318 318 320 325 327 328 329 327 326 323 322 322 321 322 323 324 321 319 316 318 316 316 315 315 318 318 313
231 246 256 261 265 259 265 253 248 248 249 256 267 279 289 303 325 321 326 327 327 324 324 324 324 322 321 319 320 321 323 322 323 320 319 318 319 317 318 319 323 327 323
228 237 250 242 254 243 239 241 243 251 252 256 265 274 291 307 316 321 324 323 323 324 325 327 324 321 321 319 320 321 321 321 320 317 317 319 320 317 319 323 311 317 322
239 254 256 247 241 244 245 247 247 248 251 255 261 274 292 312 316 317 319 322 325 327 328 325 321 318 318 317 318 319 320 320 318 316 317 318 320 325 323 326 331 329 326
248 254 252 250 249 248 246 245 245 245 246 249 256 268 285 298 309 315 320 324 325 324 323 321 315 313 312 315 320 321 321 320 319 321 325 328 332 334 333 326 322 323 324
250 249 247 246 248 249 249 247 247 247 249 252 257 268 282 299 312 317 321 323 324 324 325 324 323 321 321 324 323 322 323 323 326 345 2 2 335 328 339 339 334 330 325
256 252 246 246 247 247 249 249 250 250 251 254 258 267 283 296 305 310 315 318 322 322 323 320 318 317 321 321 321 321 323 322 343 32 347 360 8 356 1 347 343 338 332
257 250 246 245 246 250 253 257 258 256 255 255 260 265 276 287 296 302 309 316 320 322 319 314 311 315 318 323 324 324 313 302 216 19 32 9 29 9 360 351 346 340 336
270 265 249 243 243 246 249 257 261 255 253 255 259 265 273 283 291 297 305 312 317 318 316 312 307 312 317 324 327 324 295 258 225 9 358 1 8 1 350 348 344 341 337
277 267 258 245 242 241 246 258 265 260 257 256 257 263 271 277 283 293 302 311 318 321 317 310 301 303 311 316 321 328 289 275 219 328 325 344 327 348 340 342 340 336 334
288 276 258 246 239 234 238 252 256 257 256 254 257 260 263 267 277 288 298 307 314 318 318 312 305 304 308 314 327 334 301 287 228 322 274 326 307 333 329 333 333 332 331
299 289 263 242 230 226 234 245 253 257 256 253 254 256 257 261 270 280 291 302 311 317 317 311 305 299 299 301 309 320 318 290 304 296 298 298 306 319 322 324 326 329 328
304 299 266 239 227 226 232 241 251 260 255 250 250 253 259 265 272 281 289 299 307 312 316 314 306 298 293 292 293 290 286 291 302 300 301 291 302 306 312 314 316 323 324
302 295 270 242 229 226 228 237 250 259 259 257 258 261 267 272 278 282 288 296 301 303 304 304 304 301 295 291 287 289 290 293 293 289 296 301 300 303 306 308 310 314 318
292 288 268 245 233 229 233 241 250 256 258 260 261 261 264 267 274 281 287 292 296 298 299 298 296 294 293 290 288 286 286 287 290 292 292 299 301 303 302 304 306 307 310